EW4330 Weather Reports


time (UTC)temp
C
wind
direction
speed
KPH
gust
KPH
rain 1hr
cm
rain 24hr
cm
rain mn
cm
humidity
%
barometer
mb
20260507083505 15 90 3.2 8.0 0.00 0.86 0.53 97 1015.0
20260507083006 15 90 4.8 8.0 0.00 0.86 0.53 97 1015.0
20260507082507 15 90 4.8 8.0 0.00 0.86 0.53 97 1015.0
20260507082006 14 90 4.8 8.0 0.00 0.86 0.53 97 1015.0
20260507081506 14 102 1.6 3.2 0.00 0.86 0.53 97 1015.0
20260507081007 13 158 3.2 3.2 0.00 0.86 0.53 97 1015.0
20260507080507 13 270 0.0 4.8 0.00 0.86 0.53 97 1015.0
20260507080005 13 282 0.0 4.8 0.00 0.86 0.53 97 1015.0
20260507075006 13 181 0.0 3.2 0.00 0.86 0.53 97 1015.0
20260507074508 13 45 0.0 1.6 0.00 0.86 0.53 97 1015.0
20260507071035 12 248 0.0 3.2 0.00 0.86 0.53 97 1015.0
20260507070033 12 112 1.6 4.8 0.00 0.86 0.53 97 1015.0
20260507065532 12 90 3.2 4.8 0.00 0.86 0.53 97 1015.0
20260507065034 12 90 3.2 3.2 0.00 0.86 0.53 97 1015.0
20260507064033 12 90 0.0 0.0 0.00 0.86 0.53 97 1015.0
20260507063035 12 90 0.0 0.0 0.00 0.86 0.53 97 1015.0
20260507062532 12 90 0.0 0.0 0.00 0.86 0.53 97 1015.0
20260507062033 12 90 0.0 1.6 0.00 0.86 0.53 97 1015.0
20260507061533 12 90 1.6 3.2 0.00 0.86 0.53 97 1015.0
20260507061035 12 97 1.6 4.8 0.00 0.86 0.53 97 1015.0
20260507060533 12 90 4.8 4.8 0.00 0.86 0.53 97 1015.0
20260507060033 12 248 0.0 0.0 0.00 0.86 0.53 97 1015.0
20260507055534 12 248 0.0 1.6 0.00 0.86 0.53 97 1015.0
20260507055035 11 253 1.6 3.2 0.00 0.89 0.53 97 1015.0
20260507054532 12 266 0.0 3.2 0.00 0.89 0.53 97 1015.0
20260507054033 12 135 1.6 3.2 0.00 0.89 0.53 97 1015.0
20260507053533 11 135 1.6 3.2 0.00 0.89 0.53 97 1015.0
20260507053035 11 270 0.0 3.2 0.00 0.89 0.53 97 1015.0
20260507052532 11 310 3.2 3.2 0.00 0.89 0.53 97 1015.0
20260507052033 11 90 0.0 3.2 0.00 0.89 0.53 97 1015.0
20260507051532 11 90 3.2 4.8 0.00 0.89 0.53 97 1015.0
20260507050532 11 87 1.6 3.2 0.00 0.89 0.53 97 1015.0
20260507045532 11 84 1.6 3.2 0.00 0.89 0.53 97 1015.0
20260507044532 11 90 1.6 3.2 0.00 0.91 0.53 97 1015.0
20260507044033 11 90 1.6 3.2 0.00 0.94 0.53 97 1014.0
20260507043533 11 66 3.2 3.2 0.00 0.94 0.53 97 1014.0
20260507043034 11 90 3.2 4.8 0.00 0.97 0.53 97 1014.0
20260507042533 11 90 3.2 4.8 0.00 0.97 0.53 97 1015.0
20260507042033 11 68 0.0 1.6 0.00 0.97 0.53 97 1015.0
20260507041034 11 45 0.0 0.0 0.00 0.97 0.53 97 1014.0
20260507040533 11 45 0.0 0.0 0.00 0.97 0.53 97 1014.0
20260507040033 11 45 1.6 1.6 0.00 0.97 0.53 97 1014.0
20260507035034 11 90 0.0 3.2 0.00 0.99 0.53 97 1014.0
20260507034533 11 90 0.0 3.2 0.00 0.99 0.53 97 1014.0
20260507034033 11 89 3.2 4.8 0.00 0.99 0.53 97 1014.0
20260507033532 11 90 3.2 4.8 0.00 1.02 0.53 97 1014.0
20260507033034 11 90 3.2 3.2 0.00 1.02 0.53 96 1014.0
20260507032531 11 90 1.6 3.2 0.00 1.02 0.53 96 1014.0
20260507032032 11 90 1.6 3.2 0.00 1.02 0.53 96 1014.0
20260507031532 11 68 1.6 3.2 0.00 1.02 0.53 96 1014.0
20260507031034 11 68 0.0 3.2 0.00 1.02 0.53 96 1014.0
20260507030532 11 270 1.6 3.2 0.00 1.02 0.53 96 1014.0
20260507030033 11 0 0.0 0.0 0.00 1.02 0.53 96 1014.0
20260507025532 11 0 0.0 3.2 0.00 1.02 0.53 96 1014.0
20260507025034 11 0 0.0 3.2 0.00 1.02 0.53 96 1014.0
20260507024533 11 0 0.0 0.0 0.03 1.02 0.53 96 1014.0
20260507024033 11 0 0.0 1.6 0.05 1.02 0.53 96 1014.0
20260507023532 11 22 0.0 1.6 0.05 1.02 0.53 96 1014.0
20260507023035 11 225 0.0 1.6 0.08 1.02 0.53 96 1014.0
20260507022532 11 116 0.0 1.6 0.10 1.02 0.53 96 1014.0
20260507021035 11 248 0.0 0.0 0.10 1.02 0.53 95 1014.0
20260507020533 11 270 0.0 0.0 0.13 1.02 0.53 95 1014.0
20260507015532 11 270 0.0 0.0 0.13 1.02 0.53 95 1014.0
20260507014533 11 270 0.0 0.0 0.10 0.99 0.53 95 1014.0
20260507014033 11 270 0.0 0.0 0.08 0.97 0.51 95 1014.0
20260507013532 11 270 1.6 3.2 0.05 0.97 0.48 95 1014.0
20260507013034 11 270 0.0 1.6 0.03 0.97 0.46 95 1014.0
20260507012531 11 248 1.6 1.6 0.05 0.99 0.46 95 1014.0
20260507012033 11 248 0.0 3.2 0.05 1.02 0.46 95 1014.0
20260507011532 11 270 1.6 3.2 0.05 1.04 0.46 95 1014.0
20260507011034 11 0 1.6 9.7 0.10 1.04 0.46 95 1014.0
20260507010532 11 293 1.6 9.7 0.13 1.04 0.43 95 1014.0
20260507005033 11 284 4.8 8.0 0.25 1.04 0.43 95 1014.0
20260507004531 11 69 1.6 4.8 0.28 1.04 0.43 95 1014.0
20260507004032 11 28 0.0 1.6 0.30 1.04 0.43 95 1014.0
20260507003532 11 0 0.0 4.8 0.30 1.04 0.43 95 1014.0
20260507002533 11 270 1.6 4.8 0.33 1.04 0.43 95 1014.0
20260507002033 11 272 1.6 3.2 0.33 1.04 0.41 95 1014.0
20260507001531 11 281 1.6 3.2 0.33 1.02 0.38 95 1014.0
20260507001034 11 66 1.6 4.8 0.30 0.99 0.36 96 1014.0
20260507000532 12 306 3.2 4.8 0.28 0.94 0.30 96 1014.0
20260507000032 12 240 1.6 4.8 0.20 0.86 0.25 96 1014.0
20260506235532 12 98 1.6 4.8 0.18 0.84 0.20 96 1015.0
20260506235034 12 338 3.2 3.2 0.15 0.81 0.20 96 1015.0
20260506234532 12 311 1.6 3.2 0.13 0.79 0.15 96 1015.0
20260506234034 12 0 1.6 4.8 0.10 0.76 0.13 96 1014.0
20260506233531 12 214 1.6 4.8 0.08 0.74 0.10 96 1014.0
20260506233035 12 327 1.6 8.0 0.05 0.71 0.10 96 1014.0
20260506232532 12 271 1.6 3.2 0.08 0.71 0.10 96 1014.0
20260506232032 12 344 1.6 8.0 0.05 0.71 0.08 96 1014.0
20260506230032 12 345 0.0 1.6 0.05 0.66 0.03 96 1014.0
20260506225540 12 0 0.0 1.6 0.05 0.66 0.03 96 1014.0
20260506225034 12 338 1.6 4.8 0.05 0.66 0.03 96 1014.0
20260506224532 12 257 1.6 3.2 0.05 0.66 0.03 96 1014.0
20260506224032 12 38 3.2 4.8 0.08 0.66 0.03 96 1015.0
20260506223531 12 0 1.6 3.2 0.10 0.66 0.03 96 1015.0
20260506223033 12 324 3.2 4.8 0.10 0.66 0.03 96 1015.0
20260506222032 12 312 3.2 8.0 0.08 0.64 0.03 96 1015.0
20260506221033 12 270 1.6 1.6 0.08 0.64 0.00 95 1015.0
20260506220531 12 270 1.6 3.2 0.10 0.64 0.00 95 1015.0
20260506220032 12 135 1.6 3.2 0.10 0.64 0.00 95 1015.0
20260506215033 12 270 0.0 4.8 0.10 0.61 0.61 95 1015.0
20260506214532 12 285 1.6 4.8 0.10 0.61 0.61 95 1015.0
20260506214033 12 310 3.2 9.7 0.10 0.58 0.58 95 1015.0
20260506213533 12 46 1.6 8.0 0.10 0.58 0.58 95 1015.0
20260506213032 12 312 4.8 11.3 0.10 0.56 0.56 95 1015.0
20260506212532 12 49 1.6 4.8 0.10 0.56 0.56 95 1014.0
20260506212032 12 0 3.2 8.0 0.10 0.56 0.56 95 1014.0
20260506211533 12 354 3.2 4.8 0.08 0.53 0.53 95 1014.0
20260506211032 12 51 1.6 4.8 0.10 0.53 0.53 95 1015.0
20260506210531 12 316 4.8 8.0 0.08 0.53 0.53 95 1015.0
20260506210033 12 25 4.8 8.0 0.08 0.53 0.53 95 1015.0
20260506205533 12 338 3.2 4.8 0.08 0.56 0.53 94 1014.0
20260506204533 12 270 3.2 4.8 0.05 0.53 0.51 94 1014.0
20260506204034 12 270 1.6 8.0 0.05 0.51 0.48 94 1015.0
20260506203532 12 335 3.2 8.0 0.05 0.51 0.48 94 1015.0
20260506202533 13 309 3.2 9.7 0.05 0.48 0.46 94 1014.0
20260506202032 13 315 1.6 9.7 0.05 0.48 0.46 92 1014.0
20260506201533 13 37 3.2 8.0 0.05 0.48 0.46 92 1014.0
20260506201034 13 53 6.4 16.1 0.03 0.46 0.46 92 1013.0
20260506200034 13 42 4.8 9.7 0.03 0.46 0.46 92 1013.0
20260506195531 13 58 4.8 9.7 0.03 0.46 0.46 92 1013.0
20260506195034 13 72 4.8 9.7 0.05 0.46 0.46 91 1013.0
20260506193033 13 51 4.8 12.9 0.05 0.46 0.43 91 1013.0
20260506192531 13 75 6.4 12.9 0.08 0.46 0.43 91 1013.0
20260506192034 13 82 4.8 8.0 0.10 0.46 0.43 90 1013.0
20260506191534 13 35 3.2 8.0 0.10 0.46 0.43 90 1013.0
20260506191033 13 28 1.6 8.0 0.13 0.46 0.43 90 1012.0
20260506190534 13 346 3.2 8.0 0.10 0.43 0.41 90 1012.0
20260506190032 13 6 3.2 8.0 0.10 0.43 0.41 90 1012.0
20260506184533 13 333 1.6 9.7 0.08 0.41 0.38 90 1013.0
20260506184032 13 347 3.2 9.7 0.08 0.41 0.38 90 1012.0
20260506183032 13 61 1.6 4.8 0.05 0.38 0.38 89 1012.0
20260506182031 13 261 3.2 8.0 0.03 0.36 0.33 89 1013.0
20260506180533 13 87 3.2 9.7 0.00 0.33 0.30 89 1013.0
20260506180032 13 2 4.8 9.7 0.00 0.33 0.30 89 1013.0
20260506175532 13 248 4.8 9.7 0.00 0.33 0.30 89 1013.0
20260506175033 14 354 3.2 4.8 0.00 0.33 0.30 88 1013.0
20260506174532 14 35 1.6 3.2 0.00 0.33 0.30 88 1013.0
20260506174031 14 345 3.2 8.0 0.00 0.33 0.30 88 1013.0
20260506173532 14 349 3.2 8.0 0.00 0.33 0.30 88 1013.0
20260506173033 14 81 3.2 4.8 0.00 0.33 0.30 88 1013.0
20260506172531 14 341 3.2 4.8 0.00 0.33 0.30 88 1012.0
20260506171531 14 238 3.2 9.7 0.00 0.33 0.30 88 1012.0
20260506171033 14 341 3.2 8.0 0.00 0.33 0.30 87 1013.0
20260506165533 14 19 4.8 9.7 0.00 0.33 0.30 87 1013.0
20260506165032 15 182 4.8 9.7 0.00 0.33 0.30 87 1013.0
20260506164532 15 77 3.2 8.0 0.00 0.33 0.30 87 1013.0
20260506164033 15 71 4.8 9.7 0.00 0.33 0.30 87 1012.0
20260506163531 15 90 3.2 4.8 0.00 0.33 0.30 86 1012.0
20260506163032 15 135 3.2 8.0 0.00 0.33 0.30 86 1012.0
20260506162531 15 201 4.8 9.7 0.00 0.33 0.30 86 1013.0
20260506162034 15 300 3.2 9.7 0.00 0.33 0.30 86 1013.0
20260506161532 15 41 3.2 4.8 0.00 0.33 0.30 86 1013.0
20260506161031 15 60 3.2 8.0 0.00 0.36 0.30 86 1013.0
20260506160532 15 47 3.2 8.0 0.00 0.36 0.30 84 1013.0
20260506160033 15 0 3.2 9.7 0.00 0.36 0.30 84 1013.0
20260506155531 15 48 4.8 11.3 0.00 0.36 0.30 84 1012.0
20260506155031 15 270 3.2 4.8 0.00 0.38 0.30 84 1012.0
20260506154531 15 315 3.2 4.8 0.00 0.38 0.30 83 1012.0
20260506153533 15 61 4.8 9.7 0.00 0.38 0.30 83 1013.0
20260506153034 15 272 4.8 9.7 0.00 0.38 0.30 83 1013.0
20260506152531 15 15 4.8 11.3 0.00 0.38 0.30 83 1013.0
20260506152034 15 76 4.8 9.7 0.00 0.38 0.30 83 1013.0
20260506151531 15 45 3.2 9.7 0.00 0.38 0.30 83 1013.0
20260506151033 15 66 8.0 12.9 0.00 0.38 0.30 82 1013.0
20260506150032 15 273 3.2 12.9 0.00 0.38 0.30 81 1013.0
20260506145531 15 20 4.8 12.9 0.00 0.38 0.30 81 1013.0
20260506145033 15 49 4.8 11.3 0.00 0.38 0.30 81 1013.0
20260506144531 15 0 6.4 11.3 0.00 0.38 0.30 81 1013.0
20260506144033 15 75 3.2 8.0 0.00 0.38 0.30 81 1013.0
20260506143532 15 50 4.8 8.0 0.00 0.38 0.30 81 1013.0
20260506142533 15 86 4.8 9.7 0.00 0.38 0.30 80 1012.0
20260506142035 15 52 4.8 11.3 0.00 0.38 0.30 80 1012.0
20260506141531 15 299 4.8 9.7 0.00 0.38 0.30 80 1012.0
20260506141034 15 5 4.8 12.9 0.00 0.38 0.30 80 1012.0
20260506140533 15 19 4.8 11.3 0.00 0.38 0.30 80 1012.0
20260506135530 16 78 4.8 9.7 0.00 0.38 0.30 80 1013.0
20260506135033 16 28 3.2 9.7 0.00 0.38 0.30 80 1013.0
20260506134033 16 121 3.2 9.7 0.00 0.38 0.30 79 1012.0
20260506133532 16 88 8.0 9.7 0.00 0.38 0.30 79 1012.0
20260506133035 16 82 6.4 9.7 0.00 0.38 0.30 78 1012.0
20260506132532 16 81 4.8 11.3 0.00 0.38 0.30 78 1013.0
20260506132032 16 89 4.8 9.7 0.00 0.38 0.30 76 1013.0
20260506131530 16 57 6.4 11.3 0.00 0.38 0.30 76 1013.0
20260506131032 16 80 3.2 8.0 0.00 0.38 0.30 76 1013.0
20260506130531 16 357 3.2 9.7 0.00 0.38 0.30 76 1013.0
20260506130032 16 53 4.8 9.7 0.00 0.38 0.30 76 1013.0
20260506125531 16 333 3.2 8.0 0.00 0.38 0.30 75 1013.0
20260506125033 16 122 3.2 9.7 0.00 0.38 0.30 75 1013.0
20260506124531 16 114 4.8 11.3 0.00 0.38 0.30 74 1013.0
20260506124032 16 17 6.4 12.9 0.00 0.38 0.30 74 1013.0
20260506123532 16 39 4.8 12.9 0.00 0.38 0.30 74 1013.0
20260506123032 16 181 4.8 9.7 0.00 0.38 0.30 73 1013.0
20260506122531 16 318 6.4 12.9 0.00 0.38 0.30 73 1013.0
20260506122031 16 257 4.8 11.3 0.00 0.38 0.30 73 1013.0
20260506121532 16 2 3.2 9.7 0.00 0.38 0.30 71 1013.0
20260506121033 16 308 4.8 12.9 0.00 0.38 0.30 70 1014.0
20260506120532 16 356 4.8 9.7 0.00 0.38 0.30 69 1014.0
20260506120031 16 270 6.4 12.9 0.00 0.38 0.30 68 1014.0
20260506115532 17 292 4.8 9.7 0.00 0.38 0.30 65 1014.0
20260506114530 17 18 4.8 8.0 0.00 0.38 0.30 63 1014.0
20260506114032 17 35 8.0 14.5 0.00 0.38 0.30 63 1013.0
20260506113532 17 90 8.0 14.5 0.00 0.38 0.30 63 1013.0
20260506112531 17 311 4.8 12.9 0.00 0.38 0.30 60 1014.0
20260506111033 17 118 3.2 14.5 0.00 0.38 0.30 61 1014.0
20260506110532 17 4 8.0 19.3 0.00 0.38 0.30 62 1014.0
20260506110031 17 63 6.4 8.0 0.00 0.38 0.30 63 1014.0
20260506105533 17 310 4.8 11.3 0.00 0.38 0.30 63 1014.0
20260506105033 17 69 6.4 12.9 0.00 0.38 0.30 64 1014.0
20260506104531 17 71 6.4 12.9 0.00 0.38 0.30 64 1014.0
20260506104033 17 314 8.0 14.5 0.00 0.38 0.30 65 1014.0
20260506103532 17 23 4.8 16.1 0.00 0.38 0.30 65 1014.0
20260506103031 17 86 12.9 20.9 0.00 0.38 0.30 65 1014.0
20260506102031 17 152 8.0 14.5 0.00 0.38 0.30 64 1014.0
20260506101532 17 286 9.7 12.9 0.00 0.38 0.30 65 1014.0
20260506101032 17 347 4.8 12.9 0.00 0.38 0.30 66 1014.0
20260506100030 17 49 4.8 9.7 0.00 0.38 0.30 70 1014.0
20260506095533 17 131 8.0 11.3 0.00 0.38 0.30 71 1014.0
20260506094530 16 84 8.0 14.5 0.00 0.38 0.30 74 1014.0
20260506093533 16 85 9.7 16.1 0.00 0.38 0.30 78 1013.0
20260506093031 16 72 9.7 14.5 0.00 0.38 0.30 78 1013.0
20260506092032 15 233 8.0 14.5 0.00 0.38 0.30 79 1014.0
20260506091530 15 107 4.8 9.7 0.00 0.38 0.30 79 1014.0
20260506091031 15 356 4.8 12.9 0.00 0.38 0.30 79 1014.0
20260506090532 15 278 6.4 12.9 0.00 0.38 0.30 79 1014.0
20260506090030 15 136 4.8 8.0 0.00 0.38 0.30 79 1014.0
20260506085531 15 191 4.8 8.0 0.00 0.38 0.30 80 1014.0
20260506085033 15 35 3.2 8.0 0.00 0.38 0.30 80 1014.0
20260506084531 15 290 6.4 12.9 0.00 0.38 0.30 81 1014.0